Time,TemperatureF,DewpointF,PressureIn,WindDirection,WindDirectionDegrees,WindSpeedMPH,WindSpeedGustMPH,Humidity,HourlyPrecipIn,Conditions,Clouds,dailyrainin,SoftwareType,DateUTC
2013-04-26 00:01:00,42.3,34.3,30.39,ESE,119,0.0,0.0,73,0.00,,---,0.00,VWS V14.01,2013-04-26 04:01:00,
2013-04-26 00:06:00,42.2,34.5,30.39,ESE,119,0.0,0.0,74,0.00,,---,0.00,VWS V14.01,2013-04-26 04:06:00,
2013-04-26 00:11:00,42.1,34.1,30.39,ESE,119,0.0,1.0,73,0.00,,---,0.00,VWS V14.01,2013-04-26 04:11:00,
2013-04-26 00:16:00,42.0,33.6,30.39,ESE,119,0.0,0.0,72,0.00,,---,0.00,VWS V14.01,2013-04-26 04:16:00,
2013-04-26 00:21:00,42.0,35.0,30.39,ESE,119,0.0,0.0,76,0.00,,---,0.00,VWS V14.01,2013-04-26 04:21:00,
2013-04-26 00:26:00,41.7,34.4,30.40,ESE,119,0.0,0.0,75,0.00,,---,0.00,VWS V14.01,2013-04-26 04:26:00,
2013-04-26 00:31:00,41.4,34.1,30.40,ESE,119,0.0,0.0,75,0.00,,---,0.00,VWS V14.01,2013-04-26 04:31:00,
2013-04-26 00:36:00,41.1,34.1,30.40,ESE,119,0.0,0.0,76,0.00,,---,0.00,VWS V14.01,2013-04-26 04:36:00,
2013-04-26 00:41:00,40.8,33.2,30.40,ESE,119,0.0,0.0,74,0.00,,---,0.00,VWS V14.01,2013-04-26 04:41:00,
2013-04-26 00:46:00,40.7,34.7,30.40,ESE,119,0.0,0.0,79,0.00,,---,0.00,VWS V14.01,2013-04-26 04:46:00,
2013-04-26 00:51:00,40.2,34.2,30.40,ESE,119,0.0,0.0,79,0.00,,---,0.00,VWS V14.01,2013-04-26 04:51:00,
2013-04-26 00:56:00,39.9,34.5,30.40,ESE,119,0.0,0.0,81,0.00,,---,0.00,VWS V14.01,2013-04-26 04:56:00,
2013-04-26 01:01:00,39.6,34.3,30.41,ESE,119,0.0,0.0,81,0.00,,---,0.00,VWS V14.01,2013-04-26 05:01:00,
2013-04-26 01:06:00,39.3,33.7,30.41,ESE,119,0.0,0.0,80,0.00,,---,0.00,VWS V14.01,2013-04-26 05:06:00,
2013-04-26 01:11:00,39.2,33.2,30.41,ESE,119,0.0,0.0,79,0.00,,---,0.00,VWS V14.01,2013-04-26 05:11:00,
2013-04-26 01:16:00,39.0,33.7,30.41,ESE,119,0.0,0.0,81,0.00,,---,0.00,VWS V14.01,2013-04-26 05:16:00,
2013-04-26 01:21:00,38.8,33.5,30.41,ESE,119,0.0,0.0,81,0.00,,---,0.00,VWS V14.01,2013-04-26 05:21:00,
2013-04-26 01:26:00,38.6,33.6,30.41,ESE,119,0.0,0.0,82,0.00,,---,0.00,VWS V14.01,2013-04-26 05:26:00,
2013-04-26 01:31:00,38.4,33.1,30.41,ESE,119,0.0,0.0,81,0.00,,---,0.00,VWS V14.01,2013-04-26 05:31:00,
2013-04-26 01:36:00,38.3,33.6,30.41,ESE,119,0.0,0.0,83,0.00,,---,0.00,VWS V14.01,2013-04-26 05:36:00,
2013-04-26 01:41:00,38.0,33.0,30.41,ESE,119,0.0,0.0,82,0.00,,---,0.00,VWS V14.01,2013-04-26 05:41:00,
2013-04-26 01:46:00,37.9,33.5,30.41,ESE,119,0.0,0.0,84,0.00,,---,0.00,VWS V14.01,2013-04-26 05:46:00,
2013-04-26 01:51:00,37.8,33.1,30.41,ESE,119,0.0,0.0,83,0.00,,---,0.00,VWS V14.01,2013-04-26 05:51:00,
2013-04-26 01:56:00,37.7,33.0,30.41,ESE,119,0.0,0.0,83,0.00,,---,0.00,VWS V14.01,2013-04-26 05:56:00,
2013-04-26 02:01:00,37.6,33.2,30.41,ESE,119,0.0,0.0,84,0.00,,---,0.00,VWS V14.01,2013-04-26 06:01:00,
2013-04-26 02:06:00,37.5,32.8,30.41,ESE,119,0.0,0.0,83,0.00,,---,0.00,VWS V14.01,2013-04-26 06:06:00,
2013-04-26 02:11:00,37.8,32.8,30.41,ESE,119,0.0,0.0,82,0.00,,---,0.00,VWS V14.01,2013-04-26 06:11:00,
2013-04-26 02:16:00,37.8,33.1,30.41,ESE,119,0.0,0.0,83,0.00,,---,0.00,VWS V14.01,2013-04-26 06:16:00,
2013-04-26 02:21:00,37.7,32.7,30.41,ESE,119,0.0,0.0,82,0.00,,---,0.00,VWS V14.01,2013-04-26 06:21:00,
2013-04-26 02:26:00,37.6,32.6,30.41,ESE,119,0.0,0.0,82,0.00,,---,0.00,VWS V14.01,2013-04-26 06:26:00,
2013-04-26 02:31:00,37.5,32.5,30.41,ESE,119,0.0,0.0,82,0.00,,---,0.00,VWS V14.01,2013-04-26 06:31:00,
2013-04-26 02:36:00,37.4,33.0,30.41,ESE,119,0.0,0.0,84,0.00,,---,0.00,VWS V14.01,2013-04-26 06:36:00,
2013-04-26 02:41:00,37.2,32.8,30.41,ESE,119,0.0,0.0,84,0.00,,---,0.00,VWS V14.01,2013-04-26 06:41:00,
2013-04-26 02:46:00,37.1,33.0,30.41,ESE,119,0.0,0.0,85,0.00,,---,0.00,VWS V14.01,2013-04-26 06:46:00,
2013-04-26 02:51:00,37.0,32.9,30.41,ESE,119,0.0,0.0,85,0.00,,---,0.00,VWS V14.01,2013-04-26 06:51:00,
2013-04-26 02:56:00,36.8,32.7,30.41,ESE,119,0.0,0.0,85,0.00,,---,0.00,VWS V14.01,2013-04-26 06:56:00,
2013-04-26 03:01:00,36.8,33.0,30.41,ESE,119,0.0,0.0,86,0.00,,---,0.00,VWS V14.01,2013-04-26 07:01:00,
2013-04-26 03:06:00,36.6,32.5,30.41,SE,136,0.0,2.0,85,0.00,,---,0.00,VWS V14.01,2013-04-26 07:06:00,
2013-04-26 03:11:00,36.5,32.4,30.41,SE,136,0.0,2.0,85,0.00,,---,0.00,VWS V14.01,2013-04-26 07:11:00,
2013-04-26 03:16:00,36.2,32.4,30.41,SE,136,0.0,0.0,86,0.00,,---,0.00,VWS V14.01,2013-04-26 07:16:00,
2013-04-26 03:21:00,35.9,32.1,30.41,SE,136,0.0,0.0,86,0.00,,---,0.00,VWS V14.01,2013-04-26 07:21:00,
2013-04-26 03:26:00,35.9,32.4,30.41,SE,136,0.0,0.0,87,0.00,,---,0.00,VWS V14.01,2013-04-26 07:26:00,
2013-04-26 03:31:00,35.8,32.3,30.41,SE,136,0.0,0.0,87,0.00,,---,0.00,VWS V14.01,2013-04-26 07:31:00,
2013-04-26 03:36:00,35.8,32.3,30.41,SE,136,0.0,0.0,87,0.00,,---,0.00,VWS V14.01,2013-04-26 07:36:00,
2013-04-26 03:41:00,35.7,32.2,30.41,SE,136,0.0,0.0,87,0.00,,---,0.00,VWS V14.01,2013-04-26 07:41:00,
2013-04-26 03:46:00,35.6,32.1,30.42,SE,136,0.0,0.0,87,0.00,,---,0.00,VWS V14.01,2013-04-26 07:46:00,
2013-04-26 03:51:00,35.4,31.9,30.42,SE,136,0.0,0.0,87,0.00,,---,0.00,VWS V14.01,2013-04-26 07:51:00,
2013-04-26 03:56:00,35.3,32.1,30.42,SE,136,0.0,0.0,88,0.00,,---,0.00,VWS V14.01,2013-04-26 07:56:00,
2013-04-26 04:01:00,35.3,32.1,30.42,SE,136,0.0,0.0,88,0.00,,---,0.00,VWS V14.01,2013-04-26 08:01:00,
2013-04-26 04:06:00,35.6,31.8,30.42,WSW,246,0.0,2.0,86,0.00,,---,0.00,VWS V14.01,2013-04-26 08:06:00,
2013-04-26 04:11:00,35.7,31.9,30.42,WSW,246,0.0,2.0,86,0.00,,---,0.00,VWS V14.01,2013-04-26 08:11:00,
2013-04-26 04:16:00,35.4,31.6,30.42,SSW,205,0.0,1.0,86,0.00,,---,0.00,VWS V14.01,2013-04-26 08:16:00,
2013-04-26 04:21:00,35.2,31.7,30.42,SSW,205,0.0,1.0,87,0.00,,---,0.00,VWS V14.01,2013-04-26 08:21:00,
2013-04-26 04:26:00,35.0,31.8,30.42,SSW,205,0.0,1.0,88,0.00,,---,0.00,VWS V14.01,2013-04-26 08:26:00,
2013-04-26 04:31:00,34.7,31.5,30.42,SSW,205,0.0,0.0,88,0.00,,---,0.00,VWS V14.01,2013-04-26 08:31:00,
2013-04-26 04:36:00,34.6,31.7,30.43,NW,316,0.0,1.0,89,0.00,,---,0.00,VWS V14.01,2013-04-26 08:36:00,
2013-04-26 04:41:00,34.7,31.8,30.43,NW,316,0.0,2.0,89,0.00,,---,0.00,VWS V14.01,2013-04-26 08:41:00,
2013-04-26 04:46:00,34.7,31.8,30.43,NW,316,0.0,0.0,89,0.00,,---,0.00,VWS V14.01,2013-04-26 08:46:00,
2013-04-26 04:51:00,34.6,31.7,30.43,NW,316,0.0,0.0,89,0.00,,---,0.00,VWS V14.01,2013-04-26 08:51:00,
2013-04-26 04:56:00,34.7,31.8,30.43,NW,316,0.0,0.0,89,0.00,,---,0.00,VWS V14.01,2013-04-26 08:56:00,
2013-04-26 05:01:00,34.6,31.7,30.43,NW,316,0.0,0.0,89,0.00,,---,0.00,VWS V14.01,2013-04-26 09:01:00,
2013-04-26 05:06:00,34.5,31.6,30.43,NW,316,0.0,0.0,89,0.00,,---,0.00,VWS V14.01,2013-04-26 09:06:00,
2013-04-26 05:11:00,34.4,31.5,30.43,NW,316,0.0,0.0,89,0.00,,---,0.00,VWS V14.01,2013-04-26 09:11:00,
2013-04-26 05:16:00,34.2,31.3,30.43,NW,316,0.0,0.0,89,0.00,,---,0.00,VWS V14.01,2013-04-26 09:16:00,
2013-04-26 05:21:00,34.1,31.5,30.44,NW,316,0.0,0.0,90,0.00,,---,0.00,VWS V14.01,2013-04-26 09:21:00,
2013-04-26 05:26:00,34.0,31.4,30.44,NW,316,0.0,0.0,90,0.00,,---,0.00,VWS V14.01,2013-04-26 09:26:00,
2013-04-26 05:31:00,34.0,31.6,30.44,NW,316,0.0,1.0,91,0.00,,---,0.00,VWS V14.01,2013-04-26 09:31:00,
2013-04-26 05:36:00,34.1,31.8,30.44,NW,316,0.0,1.0,91,0.00,,---,0.00,VWS V14.01,2013-04-26 09:36:00,
2013-04-26 05:41:00,34.3,32.0,30.44,NW,316,0.0,1.0,91,0.00,,---,0.00,VWS V14.01,2013-04-26 09:41:00,
2013-04-26 05:46:00,34.4,31.8,30.44,NW,316,0.0,0.0,90,0.00,,---,0.00,VWS V14.01,2013-04-26 09:46:00,
2013-04-26 05:51:00,34.3,31.4,30.44,WSW,256,0.0,0.0,89,0.00,,---,0.00,VWS V14.01,2013-04-26 09:51:00,
2013-04-26 05:56:00,34.2,31.6,30.45,WSW,256,0.0,0.0,90,0.00,,---,0.00,VWS V14.01,2013-04-26 09:56:00,
2013-04-26 06:01:00,34.2,31.6,30.45,WSW,256,0.0,0.0,90,0.00,,---,0.00,VWS V14.01,2013-04-26 10:01:00,
2013-04-26 06:06:00,34.1,31.5,30.45,WSW,256,0.0,0.0,90,0.00,,---,0.00,VWS V14.01,2013-04-26 10:06:00,
2013-04-26 06:11:00,33.9,31.3,30.45,WSW,256,0.0,0.0,90,0.00,,---,0.00,VWS V14.01,2013-04-26 10:11:00,
2013-04-26 06:16:00,33.8,31.5,30.45,WSW,256,0.0,0.0,91,0.00,,---,0.00,VWS V14.01,2013-04-26 10:16:00,
2013-04-26 06:21:00,33.7,31.4,30.45,WSW,256,0.0,0.0,91,0.00,,---,0.00,VWS V14.01,2013-04-26 10:21:00,
2013-04-26 06:26:00,33.7,31.4,30.46,WSW,256,0.0,0.0,91,0.00,,---,0.00,VWS V14.01,2013-04-26 10:26:00,
2013-04-26 06:31:00,33.8,31.5,30.46,WSW,256,0.0,0.0,91,0.00,,---,0.00,VWS V14.01,2013-04-26 10:31:00,
2013-04-26 06:36:00,33.8,31.5,30.46,WSW,256,0.0,0.0,91,0.00,,---,0.00,VWS V14.01,2013-04-26 10:36:00,
2013-04-26 06:41:00,33.8,31.5,30.46,WSW,256,0.0,0.0,91,0.00,,---,0.00,VWS V14.01,2013-04-26 10:41:00,
2013-04-26 06:46:00,33.8,31.7,30.47,WSW,256,0.0,0.0,92,0.00,,---,0.00,VWS V14.01,2013-04-26 10:46:00,
2013-04-26 06:51:00,33.8,31.7,30.46,WSW,256,0.0,0.0,92,0.00,,---,0.00,VWS V14.01,2013-04-26 10:51:00,
2013-04-26 06:56:00,33.8,31.5,30.47,SSE,147,0.0,2.0,91,0.00,,---,0.00,VWS V14.01,2013-04-26 10:56:00,
2013-04-26 07:01:00,33.7,31.4,30.47,SSE,147,0.0,0.0,91,0.00,,---,0.00,VWS V14.01,2013-04-26 11:01:00,
2013-04-26 07:06:00,33.7,31.4,30.48,SSE,147,0.0,0.0,91,0.00,,---,0.00,VWS V14.01,2013-04-26 11:06:00,
2013-04-26 07:11:00,33.9,31.8,30.48,SSE,147,0.0,0.0,92,0.00,,---,0.00,VWS V14.01,2013-04-26 11:11:00,
2013-04-26 07:16:00,33.9,31.8,30.49,SSE,147,0.0,0.0,92,0.00,,---,0.00,VWS V14.01,2013-04-26 11:16:00,
2013-04-26 07:21:00,34.1,32.0,30.49,SSE,147,0.0,0.0,92,0.00,,---,0.00,VWS V14.01,2013-04-26 11:21:00,
2013-04-26 07:26:00,34.4,32.3,30.49,SSE,147,0.0,0.0,92,0.00,,---,0.00,VWS V14.01,2013-04-26 11:26:00,
2013-04-26 07:31:00,34.8,33.0,30.49,SSE,147,0.0,0.0,93,0.00,,---,0.00,VWS V14.01,2013-04-26 11:31:00,
2013-04-26 07:36:00,35.4,33.6,30.50,SSE,147,0.0,0.0,93,0.00,,---,0.00,VWS V14.01,2013-04-26 11:36:00,
2013-04-26 07:41:00,36.1,34.3,30.50,SSE,147,1.0,2.0,93,0.00,,---,0.00,VWS V14.01,2013-04-26 11:41:00,
2013-04-26 07:46:00,36.7,34.0,30.50,SE,133,2.0,3.0,90,0.00,,---,0.00,VWS V14.01,2013-04-26 11:46:00,
2013-04-26 07:51:00,37.1,33.6,30.51,SE,142,1.0,3.0,87,0.00,,---,0.00,VWS V14.01,2013-04-26 11:51:00,
2013-04-26 07:56:00,37.7,33.9,30.51,SE,142,0.0,3.0,86,0.00,,---,0.00,VWS V14.01,2013-04-26 11:56:00,
2013-04-26 08:01:00,38.2,34.4,30.51,SE,142,0.0,0.0,86,0.00,,---,0.00,VWS V14.01,2013-04-26 12:01:00,
2013-04-26 08:06:00,38.8,35.3,30.51,SE,131,0.0,1.0,87,0.00,,---,0.00,VWS V14.01,2013-04-26 12:06:00,
2013-04-26 08:11:00,39.5,35.1,30.51,SE,131,0.0,1.0,84,0.00,,---,0.00,VWS V14.01,2013-04-26 12:11:00,
2013-04-26 08:16:00,40.5,36.0,30.51,SE,131,0.0,1.0,84,0.00,,---,0.00,VWS V14.01,2013-04-26 12:16:00,
2013-04-26 08:21:00,41.6,36.8,30.51,SE,131,0.0,1.0,83,0.00,,---,0.00,VWS V14.01,2013-04-26 12:21:00,
2013-04-26 08:26:00,43.0,37.9,30.51,SE,131,0.0,1.0,82,0.00,,---,0.00,VWS V14.01,2013-04-26 12:26:00,
2013-04-26 08:31:00,44.6,38.2,30.52,SE,131,0.0,0.0,78,0.00,,---,0.00,VWS V14.01,2013-04-26 12:31:00,
2013-04-26 08:36:00,46.1,39.0,30.52,SE,131,1.0,1.0,76,0.00,,---,0.00,VWS V14.01,2013-04-26 12:36:00,
2013-04-26 08:41:00,47.3,39.8,30.52,SE,131,0.0,1.0,75,0.00,,---,0.00,VWS V14.01,2013-04-26 12:41:00,
2013-04-26 08:46:00,48.1,40.9,30.53,SE,131,0.0,0.0,76,0.00,,---,0.00,VWS V14.01,2013-04-26 12:46:00,
2013-04-26 08:51:00,49.4,41.1,30.53,SE,131,0.0,2.0,73,0.00,,---,0.00,VWS V14.01,2013-04-26 12:51:00,
2013-04-26 08:56:00,50.5,39.6,30.53,SE,125,0.0,3.0,66,0.00,,---,0.00,VWS V14.01,2013-04-26 12:56:00,
2013-04-26 09:01:00,51.4,39.7,30.53,ESE,110,0.0,1.0,64,0.00,,---,0.00,VWS V14.01,2013-04-26 13:01:00,
2013-04-26 09:06:00,52.3,39.7,30.53,ESE,112,0.0,1.0,62,0.00,,---,0.00,VWS V14.01,2013-04-26 13:06:00,
2013-04-26 09:11:00,53.5,37.8,30.52,ESE,114,0.0,2.0,55,0.00,,---,0.00,VWS V14.01,2013-04-26 13:11:00,
2013-04-26 09:16:00,54.7,39.3,30.53,ESE,115,0.0,0.0,56,0.00,,---,0.00,VWS V14.01,2013-04-26 13:16:00,
2013-04-26 09:21:00,55.9,39.0,30.53,SE,137,2.0,3.0,53,0.00,,---,0.00,VWS V14.01,2013-04-26 13:21:00,
2013-04-26 09:26:00,56.6,37.2,30.52,South,171,1.0,3.0,48,0.00,,---,0.00,VWS V14.01,2013-04-26 13:26:00,
2013-04-26 09:30:00,57.2,39.2,30.52,SE,140,3.0,3.0,51,0.00,,---,0.00,VWS V14.01,2013-04-26 13:30:00,
2013-04-26 09:35:00,57.6,37.0,30.52,SSE,154,2.0,5.0,46,0.00,,---,0.00,VWS V14.01,2013-04-26 13:35:00,
2013-04-26 09:40:00,57.8,36.0,30.52,ESE,117,0.0,6.0,44,0.00,,---,0.00,VWS V14.01,2013-04-26 13:40:00,
2013-04-26 09:45:00,58.3,40.3,30.52,South,171,0.0,1.0,51,0.00,,---,0.00,VWS V14.01,2013-04-26 13:45:00,
2013-04-26 09:50:00,59.0,39.9,30.52,East,89,0.0,4.0,49,0.00,,---,0.00,VWS V14.01,2013-04-26 13:50:00,
2013-04-26 09:55:00,59.0,36.0,30.52,SE,132,5.0,6.0,42,0.00,,---,0.00,VWS V14.01,2013-04-26 13:55:00,
2013-04-26 10:00:00,58.7,35.7,30.52,SE,127,3.0,4.0,42,0.00,,---,0.00,VWS V14.01,2013-04-26 14:00:00,
2013-04-26 10:05:00,58.7,36.3,30.52,NE,46,1.0,5.0,43,0.00,,---,0.00,VWS V14.01,2013-04-26 14:05:00,
2013-04-26 10:10:00,59.0,37.1,30.52,ESE,117,3.0,6.0,44,0.00,,---,0.00,VWS V14.01,2013-04-26 14:10:00,
2013-04-26 10:15:00,59.3,36.2,30.52,SE,142,3.0,3.0,42,0.00,,---,0.00,VWS V14.01,2013-04-26 14:15:00,
2013-04-26 10:20:00,59.1,35.4,30.52,SSE,164,1.0,6.0,41,0.00,,---,0.00,VWS V14.01,2013-04-26 14:20:00,
2013-04-26 10:25:00,59.3,36.8,30.53,ESE,119,4.0,6.0,43,0.00,,---,0.00,VWS V14.01,2013-04-26 14:25:00,
2013-04-26 10:30:00,59.6,35.3,30.53,South,187,3.0,3.0,40,0.00,,---,0.00,VWS V14.01,2013-04-26 14:30:00,
2013-04-26 10:35:00,60.0,37.5,30.53,SE,139,3.0,7.0,43,0.00,,---,0.00,VWS V14.01,2013-04-26 14:35:00,
2013-04-26 10:40:00,60.3,38.9,30.53,North,9,3.0,7.0,45,0.00,,---,0.00,VWS V14.01,2013-04-26 14:40:00,
2013-04-26 10:45:00,60.1,38.1,30.52,ESE,123,1.0,2.0,44,0.00,,---,0.00,VWS V14.01,2013-04-26 14:45:00,
2013-04-26 10:50:00,60.6,40.3,30.52,ESE,110,2.0,4.0,47,0.00,,---,0.00,VWS V14.01,2013-04-26 14:50:00,
2013-04-26 10:55:00,61.1,36.6,30.52,South,181,1.0,4.0,40,0.00,,---,0.00,VWS V14.01,2013-04-26 14:55:00,
2013-04-26 11:00:00,61.5,37.6,30.51,South,185,1.0,5.0,41,0.00,,---,0.00,VWS V14.01,2013-04-26 15:00:00,
2013-04-26 11:05:00,61.7,37.2,30.51,SE,135,6.0,6.0,40,0.00,,---,0.00,VWS V14.01,2013-04-26 15:05:00,
2013-04-26 11:10:00,61.6,39.5,30.50,NNE,14,3.0,7.0,44,0.00,,---,0.00,VWS V14.01,2013-04-26 15:10:00,
2013-04-26 11:15:00,60.9,36.4,30.50,NNW,343,4.0,4.0,40,0.00,,---,0.00,VWS V14.01,2013-04-26 15:15:00,
2013-04-26 11:20:00,60.1,35.1,30.51,SW,217,1.0,4.0,39,0.00,,---,0.00,VWS V14.01,2013-04-26 15:20:00,
2013-04-26 11:25:00,60.7,37.5,30.51,SSE,154,0.0,4.0,42,0.00,,---,0.00,VWS V14.01,2013-04-26 15:25:00,
2013-04-26 11:30:00,61.7,40.2,30.51,SSE,155,1.0,3.0,45,0.00,,---,0.00,VWS V14.01,2013-04-26 15:30:00,
2013-04-26 11:35:00,62.4,35.1,30.51,SE,144,3.0,6.0,36,0.00,,---,0.00,VWS V14.01,2013-04-26 15:35:00,
2013-04-26 11:40:00,62.0,34.8,30.50,WSW,237,3.0,6.0,36,0.00,,---,0.00,VWS V14.01,2013-04-26 15:40:00,
2013-04-26 11:45:00,61.4,33.5,30.50,ENE,66,1.0,2.0,35,0.00,,---,0.00,VWS V14.01,2013-04-26 15:45:00,
2013-04-26 11:50:00,61.3,34.1,30.50,NE,36,0.0,4.0,36,0.00,,---,0.00,VWS V14.01,2013-04-26 15:50:00,
2013-04-26 11:55:00,61.9,38.6,30.50,NNW,342,2.0,4.0,42,0.00,,---,0.00,VWS V14.01,2013-04-26 15:55:00,
2013-04-26 12:00:00,62.7,40.5,30.50,NNE,26,5.0,5.0,44,0.00,,---,0.00,VWS V14.01,2013-04-26 16:00:00,
2013-04-26 12:05:00,63.0,34.2,30.50,SE,125,2.0,6.0,34,0.00,,---,0.00,VWS V14.01,2013-04-26 16:05:00,
2013-04-26 12:10:00,63.0,37.7,30.49,ESE,116,1.0,6.0,39,0.00,,---,0.00,VWS V14.01,2013-04-26 16:10:00,
2013-04-26 12:15:00,63.1,38.4,30.49,NE,51,3.0,3.0,40,0.00,,---,0.00,VWS V14.01,2013-04-26 16:15:00,
2013-04-26 12:20:00,63.2,36.5,30.49,ENE,67,1.0,5.0,37,0.00,,---,0.00,VWS V14.01,2013-04-26 16:20:00,
2013-04-26 12:25:00,63.4,38.7,30.49,SE,143,1.0,7.0,40,0.00,,---,0.00,VWS V14.01,2013-04-26 16:25:00,
2013-04-26 12:30:00,63.7,35.6,30.48,SSE,158,4.0,5.0,35,0.00,,---,0.00,VWS V14.01,2013-04-26 16:30:00,
2013-04-26 12:35:00,63.6,35.5,30.48,South,178,2.0,5.0,35,0.00,,---,0.00,VWS V14.01,2013-04-26 16:35:00,
2013-04-26 12:40:00,63.4,35.3,30.48,WSW,253,2.0,7.0,35,0.00,,---,0.00,VWS V14.01,2013-04-26 16:40:00,
2013-04-26 12:45:00,63.3,34.5,30.48,SE,127,3.0,5.0,34,0.00,,---,0.00,VWS V14.01,2013-04-26 16:45:00,
2013-04-26 12:50:00,63.7,35.6,30.47,East,100,0.0,5.0,35,0.00,,---,0.00,VWS V14.01,2013-04-26 16:50:00,
2013-04-26 12:55:00,63.7,36.3,30.48,SE,130,5.0,8.0,36,0.00,,---,0.00,VWS V14.01,2013-04-26 16:55:00,
2013-04-26 13:00:00,63.6,39.5,30.48,SE,129,2.0,2.0,41,0.00,,---,0.00,VWS V14.01,2013-04-26 17:00:00,
2013-04-26 13:05:00,63.9,37.1,30.48,East,94,2.0,6.0,37,0.00,,---,0.00,VWS V14.01,2013-04-26 17:05:00,
2013-04-26 13:10:00,64.0,39.2,30.48,East,79,1.0,6.0,40,0.00,,---,0.00,VWS V14.01,2013-04-26 17:10:00,
2013-04-26 13:15:00,64.2,35.3,30.48,South,182,1.0,2.0,34,0.00,,---,0.00,VWS V14.01,2013-04-26 17:15:00,
2013-04-26 13:20:00,64.4,38.3,30.48,South,175,1.0,5.0,38,0.00,,---,0.00,VWS V14.01,2013-04-26 17:20:00,
2013-04-26 13:25:00,64.3,37.5,30.48,SE,140,6.0,6.0,37,0.00,,---,0.00,VWS V14.01,2013-04-26 17:25:00,
2013-04-26 13:30:00,64.3,37.5,30.48,SE,144,2.0,3.0,37,0.00,,---,0.00,VWS V14.01,2013-04-26 17:30:00,
2013-04-26 13:35:00,64.5,38.3,30.48,SE,127,2.0,7.0,38,0.00,,---,0.00,VWS V14.01,2013-04-26 17:35:00,
2013-04-26 13:40:00,64.7,36.4,30.48,SSE,152,2.0,9.0,35,0.00,,---,0.00,VWS V14.01,2013-04-26 17:40:00,
2013-04-26 13:45:00,64.4,36.9,30.48,SE,146,4.0,5.0,36,0.00,,---,0.00,VWS V14.01,2013-04-26 17:45:00,
2013-04-26 13:50:00,64.2,35.3,30.49,West,277,0.0,5.0,34,0.00,,---,0.00,VWS V14.01,2013-04-26 17:50:00,
2013-04-26 13:55:00,64.0,34.3,30.47,SE,145,1.0,11.0,33,0.00,,---,0.00,VWS V14.01,2013-04-26 17:55:00,
2013-04-26 14:00:00,64.5,39.0,30.48,North,10,0.0,1.0,39,0.00,,---,0.00,VWS V14.01,2013-04-26 18:00:00,
2013-04-26 14:05:00,64.9,36.6,30.48,SSE,149,3.0,7.0,35,0.00,,---,0.00,VWS V14.01,2013-04-26 18:05:00,
2013-04-26 14:10:00,65.3,37.0,30.48,SE,140,5.0,10.0,35,0.00,,---,0.00,VWS V14.01,2013-04-26 18:10:00,
2013-04-26 14:15:00,65.6,39.3,30.47,SSW,196,0.0,2.0,38,0.00,,---,0.00,VWS V14.01,2013-04-26 18:15:00,
2013-04-26 14:20:00,65.9,36.0,30.47,SSW,195,2.0,8.0,33,0.00,,---,0.00,VWS V14.01,2013-04-26 18:20:00,
2013-04-26 14:25:00,65.9,36.8,30.47,SE,134,5.0,8.0,34,0.00,,---,0.00,VWS V14.01,2013-04-26 18:25:00,
2013-04-26 14:30:00,65.7,36.6,30.47,South,189,0.0,1.0,34,0.00,,---,0.00,VWS V14.01,2013-04-26 18:30:00,
2013-04-26 14:35:00,65.7,36.6,30.47,North,9,0.0,4.0,34,0.00,,---,0.00,VWS V14.01,2013-04-26 18:35:00,
2013-04-26 14:40:00,66.0,39.0,30.47,East,83,0.0,4.0,37,0.00,,---,0.00,VWS V14.01,2013-04-26 18:40:00,
2013-04-26 14:45:00,66.8,36.8,30.47,SE,142,5.0,5.0,33,0.00,,---,0.00,VWS V14.01,2013-04-26 18:45:00,
2013-04-26 14:50:00,66.7,37.5,30.46,South,169,4.0,8.0,34,0.00,,---,0.00,VWS V14.01,2013-04-26 18:50:00,
2013-04-26 14:55:00,66.5,34.1,30.46,SSE,158,2.0,9.0,30,0.00,,---,0.00,VWS V14.01,2013-04-26 18:55:00,
2013-04-26 15:00:00,66.4,35.7,30.46,SSE,161,2.0,5.0,32,0.00,,---,0.00,VWS V14.01,2013-04-26 19:00:00,
2013-04-26 15:05:00,66.5,35.0,30.45,SSW,209,0.0,6.0,31,0.00,,---,0.00,VWS V14.01,2013-04-26 19:05:00,
2013-04-26 15:10:00,66.8,37.6,30.45,SSE,151,4.0,8.0,34,0.00,,---,0.00,VWS V14.01,2013-04-26 19:10:00,
2013-04-26 15:15:00,66.8,36.0,30.45,SE,140,3.0,5.0,32,0.00,,---,0.00,VWS V14.01,2013-04-26 19:15:00,
2013-04-26 15:20:00,66.5,35.8,30.45,NNE,17,1.0,9.0,32,0.00,,---,0.00,VWS V14.01,2013-04-26 19:20:00,
2013-04-26 15:25:00,66.5,38.0,30.45,SE,135,3.0,9.0,35,0.00,,---,0.00,VWS V14.01,2013-04-26 19:25:00,
2013-04-26 15:30:00,66.9,36.9,30.44,SSE,147,3.0,6.0,33,0.00,,---,0.00,VWS V14.01,2013-04-26 19:30:00,
2013-04-26 15:35:00,66.8,36.0,30.44,SE,144,4.0,9.0,32,0.00,,---,0.00,VWS V14.01,2013-04-26 19:35:00,
2013-04-26 15:40:00,66.4,37.2,30.44,West,262,1.0,9.0,34,0.00,,---,0.00,VWS V14.01,2013-04-26 19:40:00,
2013-04-26 15:45:00,66.7,35.1,30.44,SSE,150,8.0,8.0,31,0.00,,---,0.00,VWS V14.01,2013-04-26 19:45:00,
2013-04-26 15:50:00,66.4,35.7,30.43,SE,134,2.0,9.0,32,0.00,,---,0.00,VWS V14.01,2013-04-26 19:50:00,
2013-04-26 15:55:00,66.6,38.8,30.43,South,184,1.0,9.0,36,0.00,,---,0.00,VWS V14.01,2013-04-26 19:55:00,
2013-04-26 16:00:00,66.8,35.2,30.43,SE,127,2.0,5.0,31,0.00,,---,0.00,VWS V14.01,2013-04-26 20:00:00,
2013-04-26 16:05:00,66.5,38.0,30.42,SE,129,5.0,8.0,35,0.00,,---,0.00,VWS V14.01,2013-04-26 20:05:00,
2013-04-26 16:10:00,66.7,35.9,30.42,East,101,4.0,6.0,32,0.00,,---,0.00,VWS V14.01,2013-04-26 20:10:00,
2013-04-26 16:15:00,66.8,35.2,30.41,SE,137,5.0,5.0,31,0.00,,---,0.00,VWS V14.01,2013-04-26 20:15:00,
2013-04-26 16:20:00,67.0,35.4,30.42,SE,139,8.0,9.0,31,0.00,,---,0.00,VWS V14.01,2013-04-26 20:20:00,
2013-04-26 16:25:00,67.0,35.4,30.42,South,181,6.0,9.0,31,0.00,,---,0.00,VWS V14.01,2013-04-26 20:25:00,
2013-04-26 16:30:00,66.6,34.2,30.42,SE,126,1.0,3.0,30,0.00,,---,0.00,VWS V14.01,2013-04-26 20:30:00,
2013-04-26 16:35:00,66.5,35.8,30.41,SSW,196,1.0,3.0,32,0.00,,---,0.00,VWS V14.01,2013-04-26 20:35:00,
2013-04-26 16:40:00,66.7,36.7,30.42,South,175,2.0,6.0,33,0.00,,---,0.00,VWS V14.01,2013-04-26 20:40:00,
2013-04-26 16:45:00,66.6,34.2,30.41,South,185,3.0,5.0,30,0.00,,---,0.00,VWS V14.01,2013-04-26 20:45:00,
2013-04-26 16:50:00,66.5,36.5,30.41,SE,133,3.0,6.0,33,0.00,,---,0.00,VWS V14.01,2013-04-26 20:50:00,
2013-04-26 16:55:00,66.4,35.7,30.41,SSE,154,5.0,7.0,32,0.00,,---,0.00,VWS V14.01,2013-04-26 20:55:00,
2013-04-26 17:00:00,66.2,36.3,30.41,SSE,149,0.0,1.0,33,0.00,,---,0.00,VWS V14.01,2013-04-26 21:00:00,
2013-04-26 17:05:00,66.1,35.4,30.40,SSE,158,5.0,6.0,32,0.00,,---,0.00,VWS V14.01,2013-04-26 21:05:00,
2013-04-26 17:10:00,65.9,36.0,30.40,ESE,123,9.0,9.0,33,0.00,,---,0.00,VWS V14.01,2013-04-26 21:10:00,
2013-04-26 17:15:00,65.7,35.8,30.40,SE,146,4.0,5.0,33,0.00,,---,0.00,VWS V14.01,2013-04-26 21:15:00,
2013-04-26 17:20:00,65.7,37.3,30.40,SSE,152,2.0,5.0,35,0.00,,---,0.00,VWS V14.01,2013-04-26 21:20:00,
2013-04-26 17:25:00,65.6,35.0,30.40,ESE,121,0.0,6.0,32,0.00,,---,0.00,VWS V14.01,2013-04-26 21:25:00,
2013-04-26 17:30:00,65.7,35.1,30.40,SE,136,2.0,3.0,32,0.00,,---,0.00,VWS V14.01,2013-04-26 21:30:00,
2013-04-26 17:35:00,65.7,37.3,30.40,SSE,161,1.0,4.0,35,0.00,,---,0.00,VWS V14.01,2013-04-26 21:35:00,
2013-04-26 17:40:00,65.8,36.7,30.40,SSE,160,3.0,5.0,34,0.00,,---,0.00,VWS V14.01,2013-04-26 21:40:00,
2013-04-26 17:45:00,65.6,35.8,30.40,South,171,1.0,2.0,33,0.00,,---,0.00,VWS V14.01,2013-04-26 21:45:00,
2013-04-26 17:50:00,65.5,37.2,30.40,SE,139,0.0,2.0,35,0.00,,---,0.00,VWS V14.01,2013-04-26 21:50:00,
2013-04-26 17:55:00,65.3,37.7,30.40,SSE,151,2.0,4.0,36,0.00,,---,0.00,VWS V14.01,2013-04-26 21:55:00,
2013-04-26 18:00:00,65.1,36.1,30.39,ESE,120,3.0,3.0,34,0.00,,---,0.00,VWS V14.01,2013-04-26 22:00:00,
2013-04-26 18:05:00,65.0,36.0,30.39,SE,135,5.0,5.0,34,0.00,,---,0.00,VWS V14.01,2013-04-26 22:05:00,
2013-04-26 18:10:00,64.8,37.2,30.39,SE,133,0.0,6.0,36,0.00,,---,0.00,VWS V14.01,2013-04-26 22:10:00,
2013-04-26 18:15:00,64.7,35.7,30.39,SSE,156,2.0,2.0,34,0.00,,---,0.00,VWS V14.01,2013-04-26 22:15:00,
2013-04-26 18:20:00,64.6,35.6,30.39,South,172,0.0,5.0,34,0.00,,---,0.00,VWS V14.01,2013-04-26 22:20:00,
2013-04-26 18:25:00,64.5,37.7,30.39,SE,133,1.0,5.0,37,0.00,,---,0.00,VWS V14.01,2013-04-26 22:25:00,
2013-04-26 18:30:00,64.4,36.2,30.40,SE,142,2.0,3.0,35,0.00,,---,0.00,VWS V14.01,2013-04-26 22:30:00,
2013-04-26 18:35:00,64.3,36.8,30.40,South,171,0.0,5.0,36,0.00,,---,0.00,VWS V14.01,2013-04-26 22:35:00,
2013-04-26 18:40:00,64.2,37.4,30.40,South,169,0.0,5.0,37,0.00,,---,0.00,VWS V14.01,2013-04-26 22:40:00,
2013-04-26 18:45:00,64.1,37.3,30.40,SSW,192,2.0,2.0,37,0.00,,---,0.00,VWS V14.01,2013-04-26 22:45:00,
2013-04-26 18:50:00,64.0,36.5,30.41,ESE,116,0.0,6.0,36,0.00,,---,0.00,VWS V14.01,2013-04-26 22:50:00,
2013-04-26 18:55:00,64.0,37.9,30.41,SE,146,0.0,6.0,38,0.00,,---,0.00,VWS V14.01,2013-04-26 22:55:00,
2013-04-26 19:00:00,63.8,39.0,30.41,SE,146,0.0,0.0,40,0.00,,---,0.00,VWS V14.01,2013-04-26 23:00:00,
2013-04-26 19:05:00,63.7,38.3,30.41,SE,146,0.0,1.0,39,0.00,,---,0.00,VWS V14.01,2013-04-26 23:05:00,
2013-04-26 19:10:00,63.6,40.1,30.41,SE,146,0.0,1.0,42,0.00,,---,0.00,VWS V14.01,2013-04-26 23:10:00,
2013-04-26 19:15:00,63.4,39.9,30.41,SE,146,0.0,0.0,42,0.00,,---,0.00,VWS V14.01,2013-04-26 23:15:00,
2013-04-26 19:20:00,63.2,41.5,30.42,SE,146,0.0,0.0,45,0.00,,---,0.00,VWS V14.01,2013-04-26 23:20:00,
2013-04-26 19:25:00,62.6,41.5,30.42,SE,146,0.0,0.0,46,0.00,,---,0.00,VWS V14.01,2013-04-26 23:25:00,
2013-04-26 19:30:00,62.2,41.2,30.42,SE,146,0.0,0.0,46,0.00,,---,0.00,VWS V14.01,2013-04-26 23:30:00,
2013-04-26 19:35:00,61.9,42.0,30.42,SE,146,0.0,0.0,48,0.00,,---,0.00,VWS V14.01,2013-04-26 23:35:00,
2013-04-26 19:40:00,61.4,40.5,30.42,SE,146,0.0,0.0,46,0.00,,---,0.00,VWS V14.01,2013-04-26 23:40:00,
2013-04-26 19:45:00,60.9,42.7,30.42,SE,146,0.0,0.0,51,0.00,,---,0.00,VWS V14.01,2013-04-26 23:45:00,
2013-04-26 19:50:00,60.3,42.1,30.42,SE,146,0.0,0.0,51,0.00,,---,0.00,VWS V14.01,2013-04-26 23:50:00,
2013-04-26 20:05:00,58.4,40.9,30.43,SE,146,0.0,0.0,52,0.00,,---,0.00,VWS V14.01,2013-04-27 00:05:00,
2013-04-26 20:10:00,57.7,41.2,30.43,SE,146,0.0,0.0,54,0.00,,---,0.00,VWS V14.01,2013-04-27 00:10:00,
2013-04-26 20:15:00,57.0,41.5,30.43,SE,146,0.0,0.0,56,0.00,,---,0.00,VWS V14.01,2013-04-27 00:15:00,
2013-04-26 20:20:00,56.4,41.4,30.43,SE,146,0.0,0.0,57,0.00,,---,0.00,VWS V14.01,2013-04-27 00:20:00,
2013-04-26 20:25:00,55.7,42.0,30.43,SE,146,0.0,0.0,60,0.00,,---,0.00,VWS V14.01,2013-04-27 00:25:00,
2013-04-26 20:30:00,55.1,41.5,30.43,SE,146,0.0,0.0,60,0.00,,---,0.00,VWS V14.01,2013-04-27 00:30:00,
2013-04-26 20:35:00,54.5,41.3,30.43,SE,146,0.0,0.0,61,0.00,,---,0.00,VWS V14.01,2013-04-27 00:35:00,
2013-04-26 20:40:00,54.1,41.4,30.43,SE,146,0.0,0.0,62,0.00,,---,0.00,VWS V14.01,2013-04-27 00:40:00,
2013-04-26 20:45:00,53.8,41.1,30.44,SE,146,0.0,0.0,62,0.00,,---,0.00,VWS V14.01,2013-04-27 00:45:00,
2013-04-26 20:50:00,53.4,41.5,30.44,SE,146,0.0,0.0,64,0.00,,---,0.00,VWS V14.01,2013-04-27 00:50:00,
2013-04-26 20:55:00,53.1,42.8,30.44,SE,146,0.0,0.0,68,0.00,,---,0.00,VWS V14.01,2013-04-27 00:55:00,
2013-04-26 21:00:00,52.6,41.6,30.44,SE,146,0.0,0.0,66,0.00,,---,0.00,VWS V14.01,2013-04-27 01:00:00,
2013-04-26 21:05:00,52.2,42.7,30.44,SE,146,0.0,0.0,70,0.00,,---,0.00,VWS V14.01,2013-04-27 01:05:00,
2013-04-26 21:10:00,51.8,41.2,30.44,SE,146,0.0,0.0,67,0.00,,---,0.00,VWS V14.01,2013-04-27 01:10:00,
2013-04-26 21:15:00,51.5,43.1,30.44,SE,146,0.0,0.0,73,0.00,,---,0.00,VWS V14.01,2013-04-27 01:15:00,
2013-04-26 21:20:00,51.1,42.4,30.44,SE,146,0.0,0.0,72,0.00,,---,0.00,VWS V14.01,2013-04-27 01:20:00,
2013-04-26 21:25:00,50.8,42.1,30.44,SE,146,0.0,0.0,72,0.00,,---,0.00,VWS V14.01,2013-04-27 01:25:00,
2013-04-26 21:30:00,50.6,41.2,30.44,SE,146,0.0,0.0,70,0.00,,---,0.00,VWS V14.01,2013-04-27 01:30:00,
2013-04-26 21:35:00,50.5,42.2,30.45,SE,146,0.0,0.0,73,0.00,,---,0.00,VWS V14.01,2013-04-27 01:35:00,
2013-04-26 21:40:00,50.3,41.3,30.45,SE,146,0.0,0.0,71,0.00,,---,0.00,VWS V14.01,2013-04-27 01:40:00,
2013-04-26 21:45:00,50.2,41.5,30.45,SE,146,0.0,0.0,72,0.00,,---,0.00,VWS V14.01,2013-04-27 01:45:00,
2013-04-26 21:50:00,50.2,41.9,30.44,SE,146,0.0,0.0,73,0.00,,---,0.00,VWS V14.01,2013-04-27 01:50:00,
2013-04-26 21:55:00,50.1,41.8,30.45,SE,146,0.0,0.0,73,0.00,,---,0.00,VWS V14.01,2013-04-27 01:55:00,
2013-04-26 22:00:00,50.1,41.4,30.44,SE,146,0.0,0.0,72,0.00,,---,0.00,VWS V14.01,2013-04-27 02:00:00,
2013-04-26 22:05:00,50.0,41.3,30.45,SE,146,0.0,0.0,72,0.00,,---,0.00,VWS V14.01,2013-04-27 02:05:00,
2013-04-26 22:10:00,50.0,41.3,30.45,SE,146,0.0,0.0,72,0.00,,---,0.00,VWS V14.01,2013-04-27 02:10:00,
2013-04-26 22:15:00,50.0,42.0,30.45,SE,146,0.0,0.0,74,0.00,,---,0.00,VWS V14.01,2013-04-27 02:15:00,
2013-04-26 22:20:00,50.0,42.4,30.45,SE,146,0.0,0.0,75,0.00,,---,0.00,VWS V14.01,2013-04-27 02:20:00,
2013-04-26 22:25:00,49.9,42.0,30.45,SE,146,0.0,0.0,74,0.00,,---,0.00,VWS V14.01,2013-04-27 02:25:00,
2013-04-26 22:30:00,49.9,42.0,30.45,SE,146,0.0,0.0,74,0.00,,---,0.00,VWS V14.01,2013-04-27 02:30:00,
2013-04-26 22:35:00,49.9,42.7,30.45,SE,146,0.0,0.0,76,0.00,,---,0.00,VWS V14.01,2013-04-27 02:35:00,
2013-04-26 22:40:00,49.8,41.9,30.45,SE,146,0.0,0.0,74,0.00,,---,0.00,VWS V14.01,2013-04-27 02:40:00,
2013-04-26 22:45:00,49.8,41.9,30.44,SE,146,0.0,0.0,74,0.00,,---,0.00,VWS V14.01,2013-04-27 02:45:00,
2013-04-26 22:50:00,49.8,42.2,30.44,SE,146,0.0,1.0,75,0.00,,---,0.00,VWS V14.01,2013-04-27 02:50:00,
2013-04-26 22:55:00,49.8,42.5,30.45,SE,146,0.0,3.0,76,0.00,,---,0.00,VWS V14.01,2013-04-27 02:55:00,
2013-04-26 23:00:00,49.7,42.5,30.44,SE,146,0.0,0.0,76,0.00,,---,0.00,VWS V14.01,2013-04-27 03:00:00,
2013-04-26 23:05:00,49.7,42.8,30.44,SE,146,1.0,1.0,77,0.00,,---,0.00,VWS V14.01,2013-04-27 03:05:00,
2013-04-26 23:10:00,49.7,42.8,30.44,SE,146,0.0,1.0,77,0.00,,---,0.00,VWS V14.01,2013-04-27 03:10:00,
2013-04-26 23:15:00,49.6,42.7,30.44,SE,146,0.0,0.0,77,0.00,,---,0.00,VWS V14.01,2013-04-27 03:15:00,
2013-04-26 23:20:00,49.7,42.8,30.44,SE,146,0.0,2.0,77,0.00,,---,0.00,VWS V14.01,2013-04-27 03:20:00,
2013-04-26 23:25:00,49.8,42.9,30.44,SE,146,0.0,2.0,77,0.00,,---,0.00,VWS V14.01,2013-04-27 03:25:00,
2013-04-26 23:30:00,49.8,42.5,30.44,SE,146,0.0,0.0,76,0.00,,---,0.00,VWS V14.01,2013-04-27 03:30:00,
2013-04-26 23:35:00,49.7,42.8,30.44,SE,146,0.0,0.0,77,0.00,,---,0.00,VWS V14.01,2013-04-27 03:35:00,
2013-04-26 23:40:00,49.7,42.8,30.44,SE,146,0.0,0.0,77,0.00,,---,0.00,VWS V14.01,2013-04-27 03:40:00,
2013-04-26 23:45:00,49.7,42.5,30.44,SE,146,0.0,0.0,76,0.00,,---,0.00,VWS V14.01,2013-04-27 03:45:00,
2013-04-26 23:50:00,49.7,42.8,30.44,SE,146,0.0,0.0,77,0.00,,---,0.00,VWS V14.01,2013-04-27 03:50:00,
2013-04-26 23:55:00,49.7,43.5,30.44,SE,146,0.0,0.0,79,0.00,,---,0.00,VWS V14.01,2013-04-27 03:55:00,